Regional Weather Roundup
Issued by NWS Grand Forks, ND

Home | Current Version | Previous Version | Graphics & Text | Print | Product List | Glossary On
Versions: 1 2 3 4 5 6 7 8 9 10 11 12 13 14 15 16 17 18 19 20 21 22 23 24 25 26 27 28 29 30 31 32 33 34 35 36 37 38 39 40 41 42 43 44 45 46 47 48 49 50
000
ASUS43 KFGF 220910
RWRFGF
PRAIRIE TO PINES  WEATHER ROUNDUP
NATIONAL WEATHER SERVICE EASTERN NORTH DAKOTA/GRAND FORKS ND
400 AM CDT TUE JUL 22 2014

 **SATELLITE DATA USED TO AUGMENT SKY COVER AT AUTOMATED STATIONS**
 *****  WEATHER ACROSS EASTERN NORTH DAKOTA  *****

CITY           SKY/WX    TMP DP  RH WIND       PRES   REMARKS
GRAND FORKS    CLOUDY    64  61  90 NW12      29.91R
GRAND FRKS AFB CLOUDY    63  63 100 NW10      29.93R
GRAND FRKS NWS   N/A     63 N/A N/A NW13        N/A
DEVILS LAKE    MOCLDY    63  57  82 NW9       29.98R
FARGO          CLOUDY    67  64  90 NW10      29.90R
WAHPETON ARPT  PTSUNNY   64  61  88 NW12      29.92R
$$

 ***** WEATHER ACROSS CENTRAL AND WESTERN NORTH DAKOTA  *****

CITY           SKY/WX    TMP DP  RH WIND       PRES   REMARKS
BISMARCK       MOCLDY    62  60  93 SW5       30.07R
MINOT          CLEAR     61  58  90 W6        30.04R
JAMESTOWN      MOCLDY    65  63  93 N8        29.97R
MINOT AFB      CLEAR     58  58 100 W7        30.04R
GARRISON         N/A     58  57  97 N6        30.06R
WILLISTON      MOCLDY    61  58  90 CALM      30.07R
DICKINSON      PTCLDY    56  56 100 NW3       30.08S FOG
HETTINGER      MOCLDY    59  57  93 N8        30.09F FOG
$$

 *****  OTHER AIRPORT OBSERVATIONS IN OUR AREA  *****

CITY           SKY/WX    TMP DP  RH WIND       PRES   REMARKS
WALHALLA         N/A     61  61 100 NW7         N/A
GRAFTON AIRPOR FAIR      63  63 100 NW12      29.92R
VALLEY CITY AR PTSUNNY   64  64 100 NW8       29.96R
CANDO          FAIR      59  57  94 NW7       30.01R
CAVALIER APRT  FAIR      63  59  88 NW12G17   29.93R
GWINNER          N/A     66  66 100 NW10      29.96R
SHEYENNE NWR     N/A     66  64  93 NW7       29.95
ROLLA          FAIR      59  59 100 NW8       30.04R
 ***** THE ABOVE OBSERVATIONS ARE NON NWS ARE NOT QUALITY
       CONTROLLED AND MAY MIS-REPORT RAIN FOR SNOW...
$$

  *****  WEATHER ACROSS NORTHERN MINNESOTA  *****

CITY           SKY/WX    TMP DP  RH WIND       PRES   REMARKS
FLAG ISLAND    CLOUDY    63  61  94 N17       29.81R
WARROAD        CLOUDY    61  57  88 NW8       29.84R
ROSEAU         CLOUDY    61  55  82 NW9       29.85R
HALLOCK        CLOUDY    64  61  88 NW12      29.89R
THF RVR FALLS  CLOUDY    63  61  94 NW13      29.87R
BAUDETTE       RAIN      66  64  93 N10       29.80R
WASKISH        LGT RAIN  66  64  94 W10       29.78R
CROOKSTON      NOT AVBL
$$
  *****  WEATHER ACROSS CENTRAL AND WEST MINNESOTA  *****

CITY           SKY/WX    TMP DP  RH WIND       PRES   REMARKS
FOSSTON        CLOUDY    63  61  94 NW12G17   29.87R
BEMIDJI        LGT RAIN  64  63  94 N13G20    29.79R
PARK RAPIDS    MOCLDY    65  63  93 NW15      29.82R
ELBOW LAKE     FAIR      65  64  96 NW15      29.89R
WADENA         PTCLDY    64  63  94 W15G26    29.82R
DETROIT LAKES  CLOUDY    64  63  94 NW15      29.90R
MOORHEAD       CLOUDY    68  68 100 NW10      29.91R
FERGUS FALLS   MOCLDY    66  64  94 NW13      29.90R
MORRIS MN      CLEAR     66  64  94 NW14      29.88R
STAPLES        PTCLDY    64  63  94 W14       29.81R
$$
  *****  WEATHER ELSEWHERE ACROSS MINNESOTA  *****

CITY           SKY/WX    TMP DP  RH WIND       PRES   REMARKS
DULUTH         CLOUDY    68  64  87 SW9       29.72F
INTRNTL FALLS  HVY RAIN  65  64  97 N12       29.69S
ELY            CLOUDY    64  63  94 S5        29.70R
CLOQUET        CLOUDY    66  64  94 SW8       29.72F
WHEATON        CLEAR     64  63  94 NW9       29.92R
BRAINERD       MOCLDY    67  64  90 W16       29.78R
HIBBING        CLOUDY    66  64  93 CALM      29.69F
ALEXANDRIA     CLEAR     67  66  97 W15       29.88R
SAINT CLOUD    PTCLDY    71  64  78 W7        29.80S
MINNEAPOLIS    MOCLDY    82  76  81 SW7       29.80S
$$

  *****  WEATHER ACROSS SOUTH DAKOTA  *****

CITY           SKY/WX    TMP DP  RH WIND       PRES   REMARKS
SIOUX FALLS    CLEAR     76  69  79 N9G18     29.89R
BROOKINGS      NOT AVBL
WATERTOWN      MOCLDY    67  62  84 N9        29.93R
HURON          LGT RAIN  68  63  84 NW15G26   30.01R
SISSETON         N/A     66  64  93 N13       29.91R
ABERDEEN       CLEAR     64  62  93 NW13      29.99R
MITCHELL       CLEAR     69  63  81 NW26G36   30.04R
PIERRE         MOCLDY    65  63  93 N10       29.97F
MOBRIDGE       MOCLDY    63  62  97 NE8       29.99F
RAPID CITY     PTCLDY    63  60  90 N5        30.11S
$$

  *****  SOME WEATHER IN NEARBY STATES *****

CITY           SKY/WX    TMP DP  RH WIND       PRES   REMARKS
GLASGOW MT     CLEAR     58  54  86 N6        30.09R
GREAT FALLS MT MOCLDY    59  46  62 CALM      30.13R
CHEYENNE WY    PTCLDY    67  42  40 NW13      30.28R
SCOTTSBLUFF NE CLEAR     64  55  72 W8        30.12R
OMAHA NE       CLOUDY    89  69  51 S7        29.89R HX  93
DES MOINES IA  CLOUDY    81  74  79 S13       29.90S
DAVENPORT IA   CLEAR     74  66  76 S14       30.00F
CHICAGO IL     CLEAR     71  62  73 S7        30.05S
EAU CLAIRE WI  CLOUDY    78  72  81 S10       29.82F
LA CROSSE WI   CLOUDY    79  69  71 S9G20     29.88F
$$

  *****  SOME NATIONAL WEATHER *****

CITY           SKY/WX    TMP DP  RH WIND       PRES   REMARKS
LA GUARDIA NY  PTCLDY    73  60  63 SW3       30.16R
RALEIGH NC     CLOUDY    73  70  90 NE8       30.14S FOG
ATLANTA GA     CLOUDY    72  70  94 CALM      30.09S
NEW ORLEANS LA MOCLDY    77  73  87 CALM      29.99S
OKLAHOMA CITY  CLOUDY    76  72  87 S8        30.03F
ALBUQUERQUE NM CLOUDY    79  50  36 E9        30.22F
SALT LAKE CITY PTCLDY    69  48  47 CALM      30.12R
LOS ANGELES CA PTCLDY    67  62  84 CALM      30.01S
BOISE ID       CLOUDY    70  55  59 SE5       30.08S
SEATTLE WA     CLEAR     58  52  80 CALM      30.03S
$$

*** WEATHER ACROSS MANITOBA...SASKATCHEWAN AND ONTARIO ***
                ***ONTARIO***

CITY           SKY/WX    TMP DP  RH WIND       PRES   REMARKS
GERALDTON      CLOUDY    66  64  94 SE3       29.82
THUNDER BAY    TSTM      59  57  94 CALM      29.78R
SIOUX LOOKOUT  LGT RAIN  63  61  94 N3        29.75F
TORONTO        CLEAR     66  64  94 SW2       30.11R
BIG TROUT LK   MOCLDY    52  48  87 N8        29.92R
PICKLE LAKE    NOT AVBL
DRYDEN         LGT RAIN  64  63  94 NE16G24   29.71R
KENORA         LGT RAIN  59  57  94 N9        29.83R
$$
                *** MANITOBA***

CITY           SKY/WX    TMP DP  RH WIND       PRES   REMARKS
BRANDON        CLEAR     59  57  94 NW7       30.02R
DAUPHIN        CLEAR     57  55  94 W7        30.02R
ISLAND LAKE    MOCLDY    54  50  87 N10       29.99R
PILOT MOUND      N/A     57  55  94 NW7         N/A
THE PAS        PTCLDY    57  54  88 N2        30.07R
THOMPSON       PTCLDY    41  41 100 NW3       30.08R
WINNIPEG       MOCLDY    59  55  88 NW7       29.94R
LYNN LAKE      MOCLDY    50  48  93 NW7       30.09S
CHURCHILL      MOCLDY    50  48  93 NW7       30.01R
GILLAM         PTCLDY    52  48  87 N8        30.04R
$$
                ***SASKATCHEWAN***

CITY           SKY/WX    TMP DP  RH WIND       PRES   REMARKS
ESTEVAN        MOCLDY    61  59  94 CALM      30.09R
KINDERSLEY     PTCLDY    55  54  94 N5        30.13R
LLOYDMINSTER   CLEAR     48  46  93 SW2       30.12R
PRINCE ALBERT  NOT AVBL
REGINA         PTCLDY    59  59 100 SW2       30.10R
YORKTON        CLEAR     54  50  87 W7        30.08R
N. BATTLEFORD  FOG       50  48  93 CALM      30.13R VSB 1
LA RONGE       CLEAR     48  46  93 CALM      30.10R
SASKATOON      CLEAR     54  52  94 NW6       30.11R
SWIFT CURRENT  FOG       52  52 100 NW6       30.13R VSB 1/4
$$
NOTE: THESE ARE AUTOMATED STATIONS WITH LIMITED QUALITY CONTROL
      "FAIR" INDICATES FEW OR NO CLOUDS BELOW 12,000 FEET WITH NO
      SIGNIFICANT WEATHER AND/OR OBSTRUCTIONS TO VISIBILITY.
      SKY/WX - SKY CONDITION AND SIGNIFICANT WEATHER.
      TMP - AIR TEMPERATURE.    DP   - DEWPOINT TEMPERATURE.
      RH  - RELATIVE HUMIDITY.  PRES - PRESSURE.
      HX  - HEAT INDEX.         WCI  - WIND CHILL INDEX.
$


USA.gov is the U.S. government's official web portal to all federal, state and local government web resources and services.